Location: Newark
(49.3000°N, 9.4667°E)
Time: 05:25:02
(UTC+00:00)

Tiros 1 - Pass Details

Date: 31 May 2019
Orbit: 631 x 664 km, 48.4° (Epoch: 18 June)

Event Time Altitude Azimuth Distance (km) Brightness Sun altitude
Rises 11:58:06 0° 282° (WNW) 2,935 10.6 61.6°
Reaches altitude 10° 12:00:30 10° 276° (W) 2,029 9.9 61.5°
Maximum altitude 12:04:54 43° 206° (SSW) 907 9.7 61.2°
Drops below altitude 10° 12:09:21 10° 135° (SE) 2,042 10.0 60.9°
Sets 12:11:46 0° 129° (SE) 2,956 10.6 60.7°
